When you browse on this site, cookies collect data to enhance your experience and personalize the content and advertising you see.
Visit our Privacy Policy to learn more. By continuing to use the site, you agree to this use of cookies and data.
  • In Portugal
  • List of Countries
  • For 7 days
  • Water Temperature
  • Weather Map
  • Weather Widgets
  • user-avatar
    Login

    Hourly Weather Ourense

    Today, 23 August, Friday

    Time Temperature Precipitation Wind Pressure Humidity
    00:00 +22°C° 0 mm 1 mps 736 mmHg 50%
    01:00 +21°C° 0 mm 1 mps 736 mmHg 49%
    02:00 +21°C° 0 mm 1 mps 736 mmHg 48%
    03:00 +21°C° 0 mm 1 mps 735 mmHg 47%
    04:00 +20°C° 0 mm 1 mps 735 mmHg 45%
    05:00 +20°C° 0 mm 1 mps 735 mmHg 43%
    06:00 +24°C° 0 mm 1 mps 736 mmHg 36%
    07:00 +27°C° 0 mm 1 mps 736 mmHg 30%
    08:00 +30°C° 0 mm 1 mps 736 mmHg 23%
    09:00 +32°C° 0 mm 1 mps 736 mmHg 21%
    10:00 +35°C° 0 mm 2 mps 736 mmHg 19%
    11:00 +38°C° 0 mm 2 mps 736 mmHg 17%
    12:00 +38°C° 0 mm 2 mps 736 mmHg 17%
    13:00 +38°C° 0 mm 3 mps 736 mmHg 18%
    14:00 +38°C° 0 mm 3 mps 736 mmHg 18%
    15:00 +37°C° 0 mm 3 mps 736 mmHg 22%
    16:00 +35°C° 0 mm 3 mps 735 mmHg 25%
    17:00 +34°C° 0 mm 3 mps 735 mmHg 28%
    18:00 +29°C° 0 mm 2 mps 735 mmHg 35%
    19:00 +26°C° 0 mm 1 mps 736 mmHg 42%
    20:00 +23°C° 0 mm 1 mps 736 mmHg 50%
    21:00 +20°C° 0 mm 0 mps 736 mmHg 50%
    22:00 +20°C° 0 mm 0 mps 736 mmHg 51%
    23:00 +19°C° 0 mm 0 mps 736 mmHg 52%

    Tomorrow, 24 August, Saturday

    Time Temperature Precipitation Wind Pressure Humidity
    00:00 +19°C° 0 mm 0 mps 735 mmHg 52%
    01:00 +19°C° 0 mm 0 mps 735 mmHg 52%
    02:00 +19°C° 0 mm 0 mps 735 mmHg 52%
    03:00 +19°C° 0 mm 0 mps 735 mmHg 53%
    04:00 +18°C° 0 mm 0 mps 735 mmHg 54%
    05:00 +18°C° 0 mm 0 mps 735 mmHg 54%
    06:00 +21°C° 0 mm 0 mps 735 mmHg 48%
    07:00 +25°C° 0 mm 0 mps 736 mmHg 41%
    08:00 +28°C° 0 mm 0 mps 736 mmHg 34%
    09:00 +32°C° 0 mm 1 mps 736 mmHg 31%
    10:00 +34°C° 0 mm 2 mps 736 mmHg 28%
    11:00 +36°C° 0 mm 2 mps 736 mmHg 25%
    12:00 +36°C° 0 mm 3 mps 736 mmHg 24%
    13:00 +36°C° 0 mm 3 mps 736 mmHg 24%
    14:00 +36°C° 0 mm 4 mps 735 mmHg 23%
    15:00 +34°C° 0 mm 3 mps 735 mmHg 25%
    16:00 +33°C° 0 mm 3 mps 735 mmHg 27%
    17:00 +31°C° 0 mm 2 mps 735 mmHg 29%
    18:00 +27°C° 0 mm 2 mps 735 mmHg 38%
    19:00 +24°C° 0 mm 1 mps 736 mmHg 46%
    20:00 +21°C° 0 mm 1 mps 736 mmHg 55%
    21:00 +20°C° 0 mm 1 mps 735 mmHg 61%
    22:00 +20°C° 0 mm 1 mps 735 mmHg 66%
    23:00 +19°C° 0 mm 1 mps 735 mmHg 72%

    Day after tomorrow, 25 August, Sunday

    Time Temperature Precipitation Wind Pressure Humidity
    00:00 +18°C° 0.1 mm 1 mps 734 mmHg 75%
    01:00 +18°C° 0.1 mm 1 mps 734 mmHg 78%
    02:00 +18°C° 0.1 mm 1 mps 734 mmHg 80%
    03:00 +16°C° 0.1 mm 1 mps 734 mmHg 82%
    04:00 +16°C° 0.1 mm 1 mps 733 mmHg 84%
    05:00 +16°C° 0.1 mm 1 mps 733 mmHg 86%
    06:00 +19°C° 0.1 mm 1 mps 734 mmHg 79%
    07:00 +21°C° 0.1 mm 1 mps 734 mmHg 72%
    08:00 +22°C° 0.1 mm 0 mps 734 mmHg 65%
    09:00 +26°C° 0 mm 1 mps 734 mmHg 57%
    10:00 +28°C° 0 mm 1 mps 734 mmHg 49%
    11:00 +30°C° 0 mm 1 mps 734 mmHg 41%
    12:00 +31°C° 0 mm 1 mps 734 mmHg 40%
    13:00 +32°C° 0 mm 1 mps 734 mmHg 38%
    14:00 +32°C° 0 mm 1 mps 733 mmHg 36%
    15:00 +31°C° 0 mm 2 mps 733 mmHg 41%
    16:00 +30°C° 0 mm 2 mps 733 mmHg 46%
    17:00 +29°C° 0 mm 2 mps 733 mmHg 51%
    18:00 +26°C° 0.2 mm 2 mps 733 mmHg 61%
    19:00 +24°C° 0.2 mm 2 mps 734 mmHg 71%
    20:00 +21°C° 0.2 mm 1 mps 734 mmHg 81%
    21:00 +21°C° 0.1 mm 1 mps 733 mmHg 83%
    22:00 +20°C° 0.1 mm 1 mps 733 mmHg 85%
    23:00 +19°C° 0.1 mm 1 mps 733 mmHg 88%

    26 August, Monday

    Time Temperature Precipitation Wind Pressure Humidity
    00:00 +19°C° 0 mm 1 mps 732 mmHg 88%
    01:00 +19°C° 0 mm 1 mps 732 mmHg 89%
    02:00 +18°C° 0 mm 1 mps 732 mmHg 89%
    03:00 +18°C° 0 mm 1 mps 732 mmHg 90%
    04:00 +18°C° 0 mm 1 mps 732 mmHg 90%
    05:00 +16°C° 0 mm 1 mps 732 mmHg 90%
    06:00 +20°C° 0 mm 1 mps 732 mmHg 81%
    07:00 +22°C° 0 mm 1 mps 733 mmHg 72%
    08:00 +25°C° 0 mm 1 mps 733 mmHg 62%
    09:00 +27°C° 0 mm 1 mps 733 mmHg 54%
    10:00 +30°C° 0 mm 1 mps 733 mmHg 45%
    11:00 +32°C° 0 mm 1 mps 733 mmHg 36%
    12:00 +33°C° 0 mm 1 mps 733 mmHg 35%
    13:00 +33°C° 0 mm 1 mps 733 mmHg 34%
    14:00 +34°C° 0 mm 2 mps 732 mmHg 33%
    15:00 +32°C° 0 mm 2 mps 732 mmHg 39%
    16:00 +30°C° 0 mm 2 mps 732 mmHg 45%
    17:00 +29°C° 0 mm 3 mps 732 mmHg 50%
    18:00 +26°C° 0 mm 2 mps 733 mmHg 62%
    19:00 +23°C° 0 mm 2 mps 733 mmHg 74%
    20:00 +21°C° 0 mm 1 mps 733 mmHg 85%
    21:00 +20°C° 0 mm 1 mps 733 mmHg 88%
    22:00 +19°C° 0 mm 1 mps 734 mmHg 91%
    23:00 +18°C° 0 mm 1 mps 734 mmHg 94%

    27 August, Tuesday

    Time Temperature Precipitation Wind Pressure Humidity
    00:00 +18°C° 0 mm 1 mps 733 mmHg 95%
    01:00 +18°C° 0 mm 1 mps 733 mmHg 95%
    02:00 +18°C° 0 mm 1 mps 733 mmHg 96%
    03:00 +18°C° 0 mm 1 mps 733 mmHg 95%
    04:00 +18°C° 0 mm 1 mps 734 mmHg 94%
    05:00 +18°C° 0 mm 1 mps 734 mmHg 94%
    06:00 +20°C° 0 mm 1 mps 734 mmHg 85%
    07:00 +22°C° 0 mm 1 mps 734 mmHg 76%
    08:00 +24°C° 0 mm 1 mps 735 mmHg 67%
    09:00 +27°C° 0 mm 1 mps 735 mmHg 56%
    10:00 +30°C° 0 mm 1 mps 735 mmHg 46%
    11:00 +33°C° 0 mm 1 mps 735 mmHg 35%
    12:00 +34°C° 0 mm 1 mps 735 mmHg 33%
    13:00 +35°C° 0 mm 2 mps 735 mmHg 30%
    14:00 +35°C° 0 mm 2 mps 735 mmHg 27%
    15:00 +34°C° 0 mm 2 mps 735 mmHg 31%
    16:00 +32°C° 0 mm 2 mps 735 mmHg 36%
    17:00 +30°C° 0 mm 3 mps 735 mmHg 41%
    18:00 +27°C° 0 mm 2 mps 735 mmHg 53%
    19:00 +25°C° 0 mm 1 mps 735 mmHg 65%
    20:00 +20°C° 0 mm 0 mps 735 mmHg 77%
    21:00 +19°C° 0 mm 0 mps 735 mmHg 79%
    22:00 +18°C° 0 mm 0 mps 735 mmHg 82%
    23:00 +18°C° 0 mm 0 mps 736 mmHg 84%

    28 August, Wednesday

    Time Temperature Precipitation Wind Pressure Humidity
    00:00 +17°C° 0 mm 0 mps 735 mmHg 85%
    01:00 +17°C° 0 mm 0 mps 735 mmHg 86%
    02:00 +17°C° 0 mm 0 mps 735 mmHg 87%
    03:00 +17°C° 0 mm 0 mps 735 mmHg 86%
    04:00 +16°C° 0 mm 0 mps 735 mmHg 86%
    05:00 +16°C° 0 mm 0 mps 735 mmHg 86%
    06:00 +20°C° 0 mm 0 mps 736 mmHg 73%
    07:00 +23°C° 0 mm 0 mps 736 mmHg 60%
    08:00 +26°C° 0 mm 0 mps 736 mmHg 48%
    09:00 +30°C° 0 mm 1 mps 736 mmHg 40%
    10:00 +32°C° 0 mm 1 mps 736 mmHg 32%
    11:00 +36°C° 0 mm 2 mps 736 mmHg 25%
    12:00 +36°C° 0 mm 2 mps 736 mmHg 23%
    13:00 +36°C° 0 mm 2 mps 736 mmHg 22%
    14:00 +36°C° 0 mm 3 mps 736 mmHg 21%
    15:00 +35°C° 0 mm 3 mps 736 mmHg 25%
    16:00 +34°C° 0 mm 2 mps 736 mmHg 29%
    17:00 +31°C° 0 mm 2 mps 736 mmHg 33%
    18:00 +28°C° 0 mm 2 mps 736 mmHg 47%
    19:00 +25°C° 0 mm 1 mps 736 mmHg 60%
    20:00 +22°C° 0 mm 1 mps 736 mmHg 74%
    21:00 +21°C° 0 mm 1 mps 736 mmHg 78%
    22:00 +20°C° 0 mm 1 mps 736 mmHg 83%
    23:00 +20°C° 0 mm 1 mps 736 mmHg 87%
    Show more